Boone County Airport
KHRO : now visible

Airfield :











YOU CAN JOIN US ON...

 
LOGIN :

Register | Disclaimer

   EN    FR    IT 

 









Legend :    VFR   Marginal VFR   IFR   Intensive IFR   Very Intensive IFR
Visi :
Ceiling :
>= 8 km
>= 3000ft
5 to 8 km
1000 to 3000 ft
1500m to 5 km
500 to 1000 ft
800 to 1500m
200 to 500 ft
< 800m
< 200 ft
Symbols :   Thunderstorms  Fog  Heavy snow  Heavy precipitations  Wind > 20 kt






- Airport Elevation : 1365 ft
- IATA code : HRO


KHRO - Boone County

CURRENT METAR :
  • 200653Z AUTO 34007KT 10SM CLR M08/M14 A3041 RMK AO2 SLP310 T10831144

EXPIRED METARs :
  • 200553Z AUTO 10SM CLR M08/M14 A3040 RMK AO2 SLP305 60000 T10781139 11028 21078 400941078 51024

TAF KHRO
Valid from the 20 at 06:00 until the 21 at 06:00 UTC


200520Z 2006/2106 34012G21KT P6SM BKN110
FM201500 35012G22KT P6SM BKN120
FM201800 36010G20KT P6SM SCT250
KZME FIR / North America



MET'MAP, your aeronautical weather chart ! - Copyright ORBIFLY December 2007 - Disclaimer

ORBIFLY MET'MAP TEAM :

Programming & Development : Alexandra Zaïnal
Concept & original design : Baudouin d'Aumeries
Assistance for programming : Marc-Olivier Méhu
Technical & hardware support : Manuel Goepfert

Contact : metmap@orbifly.com




SOURCES & CREDITS :

   NOAA       Earth
Advisory